Regional Weather Roundup
Issued by NWS

Home | Current Version | Previous Version | Graphics & Text | Print | Product List | Glossary On
Versions: 1 2 3 4 5 6 7 8 9 10 11 12 13 14 15 16 17 18 19 20 21 22 23 24 25 26 27 28 29 30 31 32 33 34 35 36 37 38 39 40 41 42 43 44 45 46 47 48 49 50
000
ASUS45 KBOI 012210
RWRID

IDAHO REGIONAL WEATHER ROUNDUP
NATIONAL WEATHER SERVICE BOISE ID
400 PM MDT WED JUL 01 2015

NOTE: "FAIR" INDICATES FEW OR NO CLOUDS BELOW 12000 FEET
WITH NO SIGNIFICANT WEATHER AND/OR OBSTRUCTIONS TO VISIBILITY

IDZ012-014-012300-
SOUTHWEST IDAHO


CITY           SKY/WX    TMP DP  RH WIND       PRES   REMARKS
BOISE          SUNNY    101  41  12 NW14      29.95F HX  96
CALDWELL       SUNNY    100  48  17 NW7       29.94F HX  97
MOUNTAIN HOME  SUNNY    103  42  12 N15G22    29.94F HX  98
$$

IDZ016-017-012300-
SOUTHCENTRAL IDAHO


CITY           SKY/WX    TMP DP  RH WIND       PRES   REMARKS
BURLEY         SUNNY     92  51  24 W10       30.03F
JEROME         NOT AVBL
TWIN FALLS     SUNNY     97  45  16 NW8       30.02F HX  93
$$

IDZ019>023-012300-
SOUTHEAST IDAHO


CITY           SKY/WX    TMP DP  RH WIND       PRES   REMARKS
IDAHO FALLS    MOSUNNY   90  48  23 S3        30.07F
POCATELLO      SUNNY     95  47  19 W13       30.06F HX  91
REXBURG        SUNNY     90  43  19 S12       30.08F
$$

IDZ006-010-011-018-031-032-012300-
CENTRAL IDAHO MOUNTAINS


CITY           SKY/WX    TMP DP  RH WIND       PRES   REMARKS
MCCALL         SUNNY     89  36  15 NW13      30.12F
HAILEY         MOSUNNY   91  43  18 W8G17     30.11F
STANLEY          N/A     87  31  13 W10G21    30.23F
SALMON         SUNNY     93  45  18 NW3       29.97F
CHALLIS        SUNNY     96  30   9 VRB7      30.05F HX  90
$$

IDZ002-004-006-007-026-012300-
NORTHERN IDAHO


CITY           SKY/WX    TMP DP  RH WIND       PRES   REMARKS
LEWISTON       SUNNY    100  45  15 N9        29.92F HX  96
LOWELL           N/A    101  46  15 CALM      29.91F HX  97
COEUR D`ALENE  SUNNY     93  48  21 W3G17     29.97F HX  90
MULLAN PASS    SUNNY     77  44  30 MISG      30.23F
$$


USA.gov is the U.S. government's official web portal to all federal, state and local government web resources and services.